Location: Treviso
(45.6669°N, 12.2430°E)
Time: 07:47:20
(UTC+02:00)

ISS - Pass Details

Date: 21 October 2021
Orbit: 417 x 423 km, 51.6° (Epoch: 17 October)

Event Time Altitude Azimuth Distance (km) Brightness Sun altitude
Rises 06:10:52 0° 188° (S) 2,353 0.0 -15.5°
Reaches altitude 10° 06:14:03 10° 155° (SSE) 1,495 -0.6 -14.9°
Maximum altitude 06:15:21 12° 132° (SE) 1,391 -0.4 -14.7°
Drops below altitude 10° 06:16:38 10° 109° (ESE) 1,498 0.2 -14.5°
Sets 06:19:50 0° 76° (ENE) 2,366 1.7 -13.9°
